Regional Weather Roundup
Issued by NWS Kansas City/Pleasant Hill, MO

Home | Current Version | Previous Version | Text Only | Print | Product List | Glossary On
Versions: 1 2 3 4 5 6 7 8 9 10 11 12 13 14 15 16 17 18 19 20 21 22 23 24 25 26 27 28 29 30 31 32 33 34 35 36 37 38 39 40 41 42 43 44 45 46 47 48 49 50
000
ASUS43 KEAX 290510
RWREAX

WEATHER ROUNDUP FOR EASTERN KANSAS AND NORTHWEST MISSOURI
NATIONAL WEATHER SERVICE KANSAS CITY/PLEASANT HILL MO
1200 AM CDT THU SEP 29 2016

KSZ040-057-103>105-MOZ028-029-037-043-290600-
...KANSAS CITY METROPOLITAN AREA...

CITY           SKY/WX    TMP DP  RH WIND       PRES   REMARKS
K.C. INTL      PTCLDY    51  45  79 N8        30.28S
K.C. DOWNTOWN  CLEAR     56  47  71 N7        30.27S
LEES SUMMIT    CLEAR     53  47  79 N8        30.27S
OLATHE - IXD   CLEAR     52  47  83 N8        30.28R
OLATHE - OJC   CLEAR     54  46  74 N5        30.27S
LAWRENCE       CLEAR     49  48  97 NW5       30.29R

$$

MOZ001>008-011>017-020>025-030>033-038>040-044>046-053-054-290600-
...NORTHERN AND CENTRAL MISSOURI...

CITY           SKY/WX    TMP DP  RH WIND       PRES   REMARKS
ST. JOSEPH     CLEAR     51  47  86 N7        30.30R
MOSBY          CLEAR     50  46  87 CALM      30.28R
WHITEMAN AFB   CLEAR     53  50  92 N9        30.23S
CLINTON        CLEAR     50  48  93 CALM      30.25R
SEDALIA        CLEAR     53  48  83 N8        30.24S
WARSAW         NOT AVBL
CHILLICOTHE      N/A     55  49  80 VRB3      30.27S
KIRKSVILLE     CLEAR     52  48  86 N7        30.24R

$$

MOZ041-047>049-056>058-063>065-088>090-097-290600-
...EASTERN AND SOUTHERN MISSOURI...

CITY           SKY/WX    TMP DP  RH WIND       PRES   REMARKS
ST. LOUIS INTL PTCLDY    57  48  72 NW8       30.13S
SPIRIT OF STL  CLEAR     56  50  80 NW7       30.14S
COLUMBIA       CLEAR     54  50  86 N12       30.20S
JEFFERSON CITY CLEAR     55  49  80 NW6       30.20S
ROLLA          CLEAR     52  47  83 NW8       30.17F
OSAGE BEACH    CLEAR     51  48  89 CALM      30.22R
SPRINGFIELD    CLEAR     52  46  80 N6        30.21R
BRANSON        PTCLDY    55  46  71 N5        30.21S
JOPLIN         CLEAR     54  48  80 N6        30.24R
WEST PLAINS    CLEAR     52  45  77 N5        30.19R

$$

IAZ060-094-KSZ022-034>040-054-083-096-NEZ052-066-093-290600-
...KANSAS...SOUTHEAST NEBRASKA AND IOWA...

CITY           SKY/WX    TMP DP  RH WIND       PRES   REMARKS
TOPEKA         MOCLDY    52  48  86 W3        30.30R
MANHATTAN      CLEAR     51  47  86 CALM      30.31R
EMPORIA        CLEAR     53  48  83 N5        30.29R
CHANUTE        CLEAR     55  49  80 N9        30.26R
WICHITA        CLEAR     56  47  71 NE9       30.28R
OMAHA          CLEAR     50  45  83 N7        30.34R
LINCOLN        CLEAR     48  45  89 N7        30.36R
FALLS CITY     CLEAR     53  49  86 NW5       30.31R
LAMONI         CLEAR     52  48  86 NW9       30.28R
DES MOINES     CLEAR     56  49  77 N9        30.29R

$$




USA.gov is the U.S. government's official web portal to all federal, state and local government web resources and services.